START_TIME,STEP,MOV.,AL01,t_acc.,AL02,t_acc.,E37,t_acc.,H21,t_acc.
1979-07-14 09:00:34.580 ,0,0,0.,24.0,1.,24.0,2.,24.0,0.,24.0
1979-07-14 09:00:58.580 ,0,1,0.,24.0,0.,24.0,1.,24.0,0.,24.0
1979-07-14 09:01:22.580 ,0,0,0.,24.0,0.,24.0,1.,24.0,0.,24.0
1979-07-14 09:01:46.580 ,1,1,0.,24.0,0.,24.0,2.,24.0,0.,24.0
1979-07-14 09:02:10.580 ,1,0,0.,24.0,0.,24.0,1.,24.0,0.,24.0
1979-07-14 09:02:34.580 ,2,1,1.,24.0,1.,24.0,1.,24.0,0.,24.0
1979-07-14 09:02:58.580 ,2,0,0.,24.0,0.,24.0,0.,24.0,0.,24.0
1979-07-14 09:03:22.580 ,3,1,0.,24.0,0.,24.0,3.,24.0,0.,24.0
1979-07-14 09:03:46.580 ,3,0,0.,24.0,0.,24.0,3.,24.0,0.,24.0
1979-07-14 09:04:10.580 ,4,1,1.,24.0,0.,24.0,1.,24.0,0.,24.0
1979-07-14 09:04:34.580 ,4,0,0.,24.0,0.,24.0,2.,24.0,0.,24.0
1979-07-14 09:04:58.580 ,5,1,2.,24.0,0.,24.0,1.,24.0,0.,24.0
1979-07-14 09:05:22.580 ,5,0,2.,24.0,0.,24.0,1.,24.0,0.,24.0
1979-07-14 09:05:46.580 ,6,1,0.,24.0,1.,24.0,1.,24.0,0.,24.0
1979-07-14 09:06:10.580 ,6,0,0.,24.0,0.,24.0,3.,24.0,0.,24.0
1979-07-14 09:06:34.580 ,7,0,10.,24.0,1.,24.0,2.,24.0,0.,24.0
1979-07-14 09:06:58.580 ,7,0,31.,24.0,0.,24.0,1.,24.0,0.,24.0
1979-07-14 09:07:22.580 ,5,1,18.,24.0,0.,24.0,0.,24.0,0.,24.0
1979-07-14 09:07:46.580 ,1,1,0.,24.0,1.,24.0,4.,24.0,0.,24.0
1979-07-14 09:08:10.580 ,2,1,0.,24.0,0.,24.0,3.,24.0,0.,24.0
1979-07-14 09:08:34.580 ,6,1,2.,24.0,0.,24.0,0.,24.0,0.,24.0
1979-07-14 09:08:58.580 ,5,1,17.,24.0,0.,24.0,0.,24.0,0.,24.0
1979-07-14 09:09:22.580 ,1,1,0.,24.0,1.,24.0,3.,24.0,0.,24.0
1979-07-14 09:09:46.580 ,2,1,0.,24.0,0.,24.0,3.,24.0,0.,24.0
1979-07-14 09:10:10.580 ,6,1,0.,24.0,1.,24.0,0.,24.0,0.,24.0
1979-07-14 09:10:34.580 ,5,1,10.,24.0,0.,24.0,2.,24.0,0.,24.0
1979-07-14 09:10:58.580 ,1,1,0.,24.0,0.,24.0,2.,24.0,0.,24.0
1979-07-14 09:11:22.580 ,2,1,0.,24.0,0.,24.0,2.,24.0,0.,24.0
1979-07-14 09:11:46.580 ,6,1,1.,24.0,0.,24.0,3.,24.0,0.,24.0
1979-07-14 09:12:10.580 ,5,1,22.,24.0,0.,24.0,1.,24.0,0.,24.0
1979-07-14 09:12:34.580 ,1,1,0.,24.0,0.,24.0,1.,24.0,0.,24.0
1979-07-14 09:12:58.580 ,2,1,1.,24.0,0.,24.0,2.,24.0,0.,24.0
1979-07-14 09:13:22.580 ,6,1,1.,24.0,0.,24.0,1.,24.0,0.,24.0
1979-07-14 09:13:46.580 ,5,1,14.,24.0,0.,24.0,1.,24.0,0.,24.0
1979-07-14 09:14:10.580 ,1,1,0.,24.0,0.,24.0,5.,24.0,0.,24.0
1979-07-14 09:14:34.580 ,2,1,0.,24.0,0.,24.0,2.,24.0,0.,24.0
1979-07-14 09:14:58.580 ,6,1,0.,24.0,0.,24.0,3.,24.0,0.,24.0
1979-07-14 09:15:22.580 ,5,1,15.,24.0,0.,24.0,0.,24.0,0.,24.0
1979-07-14 09:15:46.580 ,1,1,3.,24.0,0.,24.0,2.,24.0,0.,24.0
1979-07-14 09:16:10.580 ,2,1,0.,24.0,1.,24.0,2.,24.0,0.,24.0
1979-07-14 09:16:34.580 ,6,1,0.,24.0,0.,24.0,6.,24.0,0.,24.0
1979-07-14 09:16:58.580 ,5,1,24.,24.0,0.,24.0,3.,24.0,0.,24.0
1979-07-14 09:17:22.580 ,1,1,0.,24.0,0.,24.0,2.,24.0,0.,24.0
1979-07-14 09:17:46.580 ,0,0,0.,24.0,0.,24.0,4.,24.0,0.,24.0
1979-07-14 09:18:10.580 ,0,0,2.,24.0,0.,24.0,1.,24.0,0.,24.0
1979-07-14 09:18:34.580 ,5,1,14.,24.0,0.,24.0,6.,24.0,0.,24.0
1979-07-14 09:18:58.580 ,5,0,0.,24.0,0.,24.0,3.,24.0,0.,24.0
1979-07-14 09:19:22.580 ,4,1,1.,24.0,1.,24.0,3.,24.0,0.,24.0
1979-07-14 09:19:46.580 ,4,0,0.,24.0,1.,24.0,2.,24.0,0.,24.0
1979-07-14 09:20:10.580 ,3,1,2.,24.0,0.,24.0,3.,24.0,0.,24.0
1979-07-14 09:20:34.580 ,3,0,1.,24.0,0.,24.0,4.,24.0,0.,24.0
1979-07-14 09:20:58.580 ,2,1,0.,24.0,0.,24.0,2.,24.0,0.,24.0
1979-07-14 09:21:22.580 ,2,0,2.,24.0,0.,24.0,4.,24.0,0.,24.0
1979-07-14 09:21:46.580 ,1,1,1.,24.0,0.,24.0,1.,24.0,0.,24.0
1979-07-14 09:22:10.580 ,1,0,0.,24.0,0.,24.0,4.,24.0,0.,24.0
1979-07-14 09:22:34.580 ,0,1,0.,24.0,0.,24.0,4.,24.0,0.,24.0
1979-07-14 09:22:58.580 ,0,0,0.,24.0,1.,24.0,4.,24.0,0.,24.0
1979-07-14 09:23:22.580 ,0,1,1.,24.0,0.,24.0,7.,24.0,0.,24.0
1979-07-14 09:23:46.580 ,0,0,0.,24.0,0.,24.0,8.,24.0,0.,24.0
1979-07-14 09:24:10.580 ,1,1,0.,24.0,0.,24.0,3.,24.0,0.,24.0
1979-07-14 09:24:34.580 ,1,0,0.,24.0,0.,24.0,1.,24.0,0.,24.0
1979-07-14 09:24:58.580 ,2,1,1.,24.0,0.,24.0,7.,24.0,0.,24.0
1979-07-14 09:25:22.580 ,2,0,0.,24.0,0.,24.0,2.,24.0,0.,24.0
1979-07-14 09:25:46.580 ,3,1,0.,24.0,0.,24.0,3.,24.0,0.,24.0
1979-07-14 09:26:10.580 ,3,0,2.,24.0,0.,24.0,0.,24.0,0.,24.0
1979-07-14 09:26:34.580 ,4,1,1.,24.0,0.,24.0,1.,24.0,0.,24.0
1979-07-14 09:26:58.580 ,4,0,0.,24.0,0.,24.0,4.,24.0,0.,24.0
1979-07-14 09:27:22.580 ,5,1,2.,24.0,1.,24.0,3.,24.0,0.,24.0
1979-07-14 09:27:46.580 ,5,0,1.,24.0,0.,24.0,1.,24.0,0.,24.0
1979-07-14 09:28:10.580 ,6,1,1.,24.0,0.,24.0,3.,24.0,0.,24.0
1979-07-14 09:28:34.580 ,6,0,1.,24.0,0.,24.0,5.,24.0,0.,24.0
1979-07-14 09:28:58.580 ,7,1,6.,24.0,1.,24.0,6.,24.0,0.,24.0
1979-07-14 09:29:22.580 ,7,0,28.,24.0,0.,24.0,4.,24.0,0.,24.0
1979-07-14 09:29:46.580 ,7,1,39.,24.0,0.,24.0,4.,24.0,0.,24.0
1979-07-14 09:30:10.580 ,7,0,24.,24.0,0.,24.0,4.,24.0,0.,24.0
1979-07-14 09:30:34.580 ,6,1,24.,24.0,0.,24.0,3.,24.0,0.,24.0
1979-07-14 09:30:58.580 ,6,0,0.,24.0,0.,24.0,5.,24.0,0.,24.0
1979-07-14 09:31:22.580 ,5,1,1.,24.0,1.,24.0,4.,24.0,0.,24.0
1979-07-14 09:31:46.580 ,5,0,1.,24.0,0.,24.0,3.,24.0,0.,24.0
1979-07-14 09:32:10.580 ,4,1,0.,24.0,0.,24.0,3.,24.0,0.,24.0
1979-07-14 09:32:34.580 ,4,0,0.,24.0,0.,24.0,5.,24.0,0.,24.0
1979-07-14 09:32:58.580 ,3,1,0.,24.0,0.,24.0,2.,24.0,0.,24.0
1979-07-14 09:33:22.580 ,3,0,1.,24.0,0.,24.0,6.,24.0,0.,24.0
1979-07-14 09:33:46.580 ,2,1,0.,24.0,0.,24.0,3.,24.0,0.,24.0
1979-07-14 09:34:10.580 ,2,0,1.,24.0,1.,24.0,3.,24.0,0.,24.0
1979-07-14 09:34:34.580 ,1,1,1.,24.0,0.,24.0,3.,24.0,0.,24.0
1979-07-14 09:34:58.580 ,1,0,1.,24.0,0.,24.0,6.,24.0,0.,24.0
1979-07-14 09:35:22.580 ,0,1,2.,24.0,0.,24.0,6.,24.0,0.,24.0
1979-07-14 09:35:46.580 ,0,0,0.,24.0,0.,24.0,6.,24.0,0.,24.0
1979-07-14 09:36:10.580 ,0,1,1.,24.0,0.,24.0,8.,24.0,0.,24.0
1979-07-14 09:36:34.580 ,0,0,0.,24.0,0.,24.0,7.,24.0,0.,24.0
1979-07-14 09:36:58.580 ,1,1,1.,24.0,0.,24.0,4.,24.0,0.,24.0
1979-07-14 09:37:22.580 ,1,0,0.,24.0,0.,24.0,7.,24.0,0.,24.0
1979-07-14 09:37:46.580 ,2,1,0.,24.0,0.,24.0,4.,24.0,0.,24.0
1979-07-14 09:38:10.580 ,2,0,0.,24.0,0.,24.0,5.,24.0,0.,24.0
1979-07-14 09:38:34.580 ,3,1,1.,24.0,0.,24.0,4.,24.0,0.,24.0
1979-07-14 09:38:58.580 ,3,0,0.,24.0,0.,24.0,1.,24.0,0.,24.0
1979-07-14 09:39:22.580 ,4,1,1.,24.0,1.,24.0,1.,24.0,0.,24.0
1979-07-14 09:39:46.580 ,4,0,2.,24.0,0.,24.0,6.,24.0,0.,24.0
1979-07-14 09:40:10.580 ,5,1,0.,24.0,1.,24.0,1.,24.0,0.,24.0
1979-07-14 09:40:34.580 ,5,0,0.,24.0,2.,24.0,6.,24.0,0.,24.0
1979-07-14 09:40:58.580 ,6,1,1.,24.0,0.,24.0,0.,24.0,0.,24.0
1979-07-14 09:41:22.580 ,6,0,0.,24.0,0.,24.0,6.,24.0,0.,24.0
1979-07-14 09:41:46.580 ,7,1,9.,24.0,0.,24.0,1.,24.0,0.,24.0
1979-07-14 09:42:10.580 ,7,0,36.,24.0,0.,24.0,2.,24.0,0.,24.0
1979-07-14 09:42:34.580 ,7,1,34.,24.0,0.,24.0,3.,24.0,0.,24.0
1979-07-14 09:42:58.580 ,7,0,29.,24.0,0.,24.0,3.,24.0,0.,24.0
1979-07-14 09:43:22.580 ,6,1,26.,24.0,0.,24.0,2.,24.0,0.,24.0
1979-07-14 09:43:46.580 ,6,0,1.,24.0,0.,24.0,6.,24.0,0.,24.0
1979-07-14 09:44:10.580 ,5,1,1.,24.0,0.,24.0,3.,24.0,0.,24.0
1979-07-14 09:44:34.580 ,5,0,0.,24.0,0.,24.0,6.,24.0,0.,24.0
1979-07-14 09:44:58.580 ,4,1,1.,24.0,0.,24.0,1.,24.0,0.,24.0
1979-07-14 09:45:22.580 ,4,0,0.,24.0,0.,24.0,0.,24.0,0.,24.0
1979-07-14 09:45:46.580 ,3,1,1.,24.0,1.,24.0,3.,24.0,0.,24.0
1979-07-14 09:46:10.580 ,3,0,2.,24.0,0.,24.0,0.,24.0,0.,24.0
1979-07-14 09:46:34.580 ,2,1,0.,24.0,0.,24.0,2.,24.0,0.,24.0
1979-07-14 09:46:58.580 ,2,0,2.,24.0,0.,24.0,2.,24.0,0.,24.0
1979-07-14 09:47:22.580 ,1,1,0.,24.0,1.,24.0,2.,24.0,0.,24.0
1979-07-14 09:47:46.580 ,1,0,0.,24.0,0.,24.0,8.,24.0,0.,24.0
1979-07-14 09:48:10.580 ,0,1,0.,24.0,0.,24.0,2.,24.0,0.,24.0
1979-07-14 09:48:34.580 ,0,0,0.,24.0,0.,24.0,3.,24.0,0.,24.0
1979-07-14 09:48:58.580 ,0,1,0.,24.0,0.,24.0,8.,24.0,0.,24.0
1979-07-14 09:49:22.580 ,0,0,0.,24.0,0.,24.0,1.,24.0,0.,24.0
1979-07-14 09:49:46.580 ,1,1,0.,24.0,2.,24.0,2.,24.0,0.,24.0
1979-07-14 09:50:10.580 ,1,0,0.,24.0,0.,24.0,4.,24.0,0.,24.0
1979-07-14 09:50:34.580 ,2,1,0.,24.0,0.,24.0,4.,24.0,0.,24.0
1979-07-14 09:50:58.580 ,2,0,1.,24.0,0.,24.0,4.,24.0,0.,24.0
1979-07-14 09:51:22.580 ,3,1,0.,24.0,0.,24.0,2.,24.0,0.,24.0
1979-07-14 09:51:46.580 ,3,0,0.,24.0,2.,24.0,0.,24.0,0.,24.0
1979-07-14 09:52:10.580 ,4,1,0.,24.0,1.,24.0,1.,24.0,0.,24.0
1979-07-14 09:52:34.580 ,4,0,0.,24.0,0.,24.0,1.,24.0,0.,24.0
1979-07-14 09:52:58.580 ,5,1,2.,24.0,0.,24.0,4.,24.0,0.,24.0
1979-07-14 09:53:22.580 ,0,0,1.,24.0,1.,24.0,4.,24.0,0.,24.0
1979-07-14 09:53:46.580 ,6,1,0.,24.0,0.,24.0,6.,24.0,0.,24.0
1979-07-14 09:54:10.580 ,6,0,0.,24.0,0.,24.0,3.,24.0,0.,24.0
1979-07-14 09:54:34.580 ,7,0,5.,24.0,0.,24.0,2.,24.0,0.,24.0
1979-07-14 09:54:58.580 ,7,0,34.,24.0,0.,24.0,3.,24.0,0.,24.0
1979-07-14 09:55:22.580 ,5,1,21.,24.0,0.,24.0,6.,24.0,0.,24.0
1979-07-14 09:55:46.580 ,1,1,1.,24.0,0.,24.0,4.,24.0,0.,24.0
1979-07-14 09:56:10.580 ,2,1,0.,24.0,0.,24.0,0.,24.0,0.,24.0
1979-07-14 09:56:34.580 ,6,1,1.,24.0,2.,24.0,4.,24.0,0.,24.0
1979-07-14 09:56:58.580 ,5,1,13.,24.0,1.,24.0,6.,24.0,0.,24.0
1979-07-14 09:57:22.580 ,1,1,0.,24.0,0.,24.0,2.,24.0,0.,24.0
1979-07-14 09:57:46.580 ,2,1,1.,24.0,0.,24.0,3.,24.0,0.,24.0
1979-07-14 09:58:10.580 ,6,1,1.,24.0,1.,24.0,3.,24.0,0.,24.0
1979-07-14 09:58:34.580 ,5,1,21.,24.0,0.,24.0,3.,24.0,0.,24.0
1979-07-14 09:58:58.580 ,1,1,0.,24.0,0.,24.0,6.,24.0,0.,24.0
1979-07-14 09:59:22.580 ,2,1,0.,24.0,1.,24.0,6.,24.0,0.,24.0
1979-07-14 09:59:46.580 ,6,1,2.,24.0,0.,24.0,6.,24.0,0.,24.0
1979-07-14 10:00:10.580 ,5,1,15.,24.0,0.,24.0,7.,24.0,0.,24.0
1979-07-14 10:00:34.580 ,1,1,1.,24.0,0.,24.0,8.,24.0,0.,24.0
1979-07-14 10:00:58.580 ,2,1,1.,24.0,0.,24.0,5.,24.0,0.,24.0
1979-07-14 10:01:22.580 ,6,1,2.,24.0,0.,24.0,3.,24.0,0.,24.0
1979-07-14 10:01:46.580 ,5,1,15.,24.0,0.,24.0,12.,24.0,0.,24.0
1979-07-14 10:02:10.580 ,1,1,0.,24.0,1.,24.0,6.,24.0,0.,24.0
1979-07-14 10:02:34.580 ,2,1,1.,24.0,1.,24.0,13.,24.0,0.,24.0
1979-07-14 10:02:58.580 ,6,1,3.,24.0,1.,24.0,8.,24.0,0.,24.0
1979-07-14 10:03:22.580 ,5,1,18.,24.0,1.,24.0,7.,24.0,0.,24.0
1979-07-14 10:03:46.580 ,1,1,0.,24.0,1.,24.0,7.,24.0,0.,24.0
1979-07-14 10:04:10.580 ,2,1,0.,24.0,1.,24.0,6.,24.0,0.,24.0
1979-07-14 10:04:34.580 ,6,1,0.,24.0,1.,24.0,9.,24.0,0.,24.0
1979-07-14 10:04:58.580 ,5,1,14.,24.0,0.,24.0,16.,24.0,0.,24.0
1979-07-14 10:05:22.580 ,1,1,0.,24.0,0.,24.0,14.,24.0,0.,24.0
1979-07-14 10:05:46.580 ,0,0,1.,24.0,0.,24.0,13.,24.0,0.,24.0
1979-07-14 10:06:10.580 ,0,0,4.,24.0,0.,24.0,16.,24.0,0.,24.0
1979-07-14 10:06:34.580 ,5,1,12.,24.0,0.,24.0,13.,24.0,0.,24.0
1979-07-14 10:06:58.580 ,5,0,1.,24.0,2.,24.0,18.,24.0,0.,24.0
1979-07-14 10:07:22.580 ,4,1,2.,24.0,0.,24.0,13.,24.0,0.,24.0
1979-07-14 10:07:46.580 ,4,0,1.,24.0,0.,24.0,21.,24.0,0.,24.0
1979-07-14 10:08:10.580 ,3,1,0.,24.0,0.,24.0,8.,24.0,0.,24.0
1979-07-14 10:08:34.580 ,3,0,0.,24.0,0.,24.0,12.,24.0,0.,24.0
1979-07-14 10:08:58.580 ,2,1,0.,24.0,0.,24.0,10.,24.0,0.,24.0
1979-07-14 10:09:22.580 ,2,0,0.,24.0,0.,24.0,13.,24.0,0.,24.0
1979-07-14 10:09:46.580 ,1,1,0.,24.0,0.,24.0,15.,24.0,0.,24.0
1979-07-14 10:10:10.580 ,1,0,2.,24.0,0.,24.0,12.,24.0,0.,24.0
1979-07-14 10:10:34.580 ,0,1,0.,24.0,0.,24.0,22.,24.0,0.,24.0
1979-07-14 10:10:58.580 ,0,0,1.,24.0,0.,24.0,22.,24.0,0.,24.0
1979-07-14 10:11:22.580 ,0,1,0.,24.0,1.,24.0,15.,24.0,0.,24.0
1979-07-14 10:11:46.580 ,0,0,0.,24.0,0.,24.0,9.,24.0,0.,24.0
1979-07-14 10:12:10.580 ,1,1,1.,24.0,0.,24.0,18.,24.0,0.,24.0
1979-07-14 10:12:34.580 ,1,0,0.,24.0,0.,24.0,14.,24.0,0.,24.0
1979-07-14 10:12:58.580 ,2,1,1.,24.0,0.,24.0,14.,24.0,0.,24.0
1979-07-14 10:13:22.580 ,2,0,0.,24.0,1.,24.0,6.,24.0,0.,24.0
1979-07-14 10:13:46.580 ,3,1,1.,24.0,0.,24.0,14.,24.0,0.,24.0
1979-07-14 10:14:10.580 ,3,0,0.,24.0,1.,24.0,6.,24.0,0.,24.0
1979-07-14 10:14:34.580 ,4,1,0.,24.0,0.,24.0,10.,24.0,0.,24.0
1979-07-14 10:14:58.580 ,4,0,2.,24.0,0.,24.0,4.,24.0,0.,24.0
1979-07-14 10:15:22.580 ,5,1,3.,24.0,0.,24.0,10.,24.0,0.,24.0
1979-07-14 10:15:46.580 ,5,0,4.,24.0,0.,24.0,15.,24.0,0.,24.0
1979-07-14 10:16:10.580 ,6,1,3.,24.0,1.,24.0,6.,24.0,0.,24.0
1979-07-14 10:16:34.580 ,6,0,1.,24.0,1.,24.0,6.,24.0,0.,24.0
1979-07-14 10:16:58.580 ,7,1,7.,24.0,1.,24.0,10.,24.0,0.,24.0
1979-07-14 10:17:22.580 ,7,0,30.,24.0,0.,24.0,11.,24.0,0.,24.0
1979-07-14 10:17:46.580 ,7,1,30.,24.0,0.,24.0,11.,24.0,0.,24.0
1979-07-14 10:18:10.580 ,7,0,31.,24.0,0.,24.0,15.,24.0,0.,24.0
1979-07-14 10:18:34.580 ,6,1,18.,24.0,0.,24.0,15.,24.0,0.,24.0
1979-07-14 10:18:58.580 ,6,0,2.,24.0,0.,24.0,16.,24.0,0.,24.0
1979-07-14 10:19:22.580 ,5,1,0.,24.0,0.,24.0,16.,24.0,0.,24.0
1979-07-14 10:19:46.580 ,5,0,4.,24.0,1.,24.0,20.,24.0,0.,24.0
1979-07-14 10:20:10.580 ,4,1,4.,24.0,0.,24.0,27.,24.0,0.,24.0
1979-07-14 10:20:34.580 ,4,0,0.,24.0,0.,24.0,9.,24.0,0.,24.0
1979-07-14 10:20:58.580 ,3,1,1.,24.0,2.,24.0,15.,24.0,0.,24.0
1979-07-14 10:21:22.580 ,3,0,3.,24.0,1.,24.0,10.,24.0,0.,24.0
1979-07-14 10:21:46.580 ,2,1,1.,24.0,0.,24.0,16.,24.0,0.,24.0
1979-07-14 10:22:10.580 ,2,0,3.,24.0,0.,24.0,15.,24.0,0.,24.0
1979-07-14 10:22:34.580 ,1,1,1.,24.0,0.,24.0,21.,24.0,0.,24.0
1979-07-14 10:22:58.580 ,1,0,0.,24.0,0.,24.0,19.,24.0,0.,24.0
1979-07-14 10:23:22.580 ,0,1,0.,24.0,0.,24.0,17.,24.0,0.,24.0
1979-07-14 10:23:46.580 ,0,0,0.,24.0,0.,24.0,14.,24.0,0.,24.0
1979-07-14 10:24:10.580 ,0,1,0.,24.0,1.,24.0,16.,24.0,0.,24.0
1979-07-14 10:24:34.580 ,0,0,0.,24.0,0.,24.0,16.,24.0,0.,24.0
1979-07-14 10:24:58.580 ,1,1,1.,24.0,0.,24.0,18.,24.0,0.,24.0
1979-07-14 10:25:22.580 ,1,0,0.,24.0,0.,24.0,24.,24.0,0.,24.0
1979-07-14 10:25:46.580 ,2,1,0.,24.0,1.,24.0,17.,24.0,0.,24.0
1979-07-14 10:26:10.580 ,2,0,0.,24.0,0.,24.0,14.,24.0,0.,24.0
1979-07-14 10:26:34.580 ,3,1,0.,24.0,0.,24.0,15.,24.0,0.,24.0
1979-07-14 10:26:58.580 ,3,0,2.,24.0,0.,24.0,10.,24.0,0.,24.0
1979-07-14 10:27:22.580 ,4,1,0.,24.0,1.,24.0,16.,24.0,0.,24.0
1979-07-14 10:27:46.580 ,4,0,0.,24.0,0.,24.0,12.,24.0,0.,24.0
1979-07-14 10:28:10.580 ,5,1,0.,24.0,1.,24.0,17.,24.0,0.,24.0
1979-07-14 10:28:34.580 ,5,0,4.,24.0,1.,24.0,14.,24.0,0.,24.0
1979-07-14 10:28:58.580 ,6,1,2.,24.0,0.,24.0,25.,24.0,0.,24.0
1979-07-14 10:29:22.580 ,6,0,0.,24.0,1.,24.0,14.,24.0,0.,24.0
1979-07-14 10:29:46.580 ,7,1,3.,24.0,2.,24.0,14.,24.0,0.,24.0
1979-07-14 10:30:10.580 ,7,0,38.,24.0,0.,24.0,18.,24.0,0.,24.0
1979-07-14 10:30:34.580 ,7,1,35.,24.0,0.,24.0,18.,24.0,0.,24.0
1979-07-14 10:30:58.580 ,7,0,38.,24.0,0.,24.0,12.,24.0,0.,24.0
1979-07-14 10:31:22.580 ,6,1,30.,24.0,0.,24.0,15.,24.0,0.,24.0
1979-07-14 10:31:46.580 ,6,0,2.,24.0,1.,24.0,14.,24.0,0.,24.0
1979-07-14 10:32:10.580 ,5,1,2.,24.0,0.,24.0,29.,24.0,0.,24.0
1979-07-14 10:32:34.580 ,5,0,1.,24.0,0.,24.0,14.,24.0,0.,24.0
1979-07-14 10:32:58.580 ,4,1,1.,24.0,1.,24.0,11.,24.0,0.,24.0
1979-07-14 10:33:22.580 ,4,0,1.,24.0,1.,24.0,16.,24.0,0.,24.0
1979-07-14 10:33:46.580 ,3,1,0.,24.0,0.,24.0,17.,24.0,0.,24.0
1979-07-14 10:34:10.580 ,3,0,2.,24.0,2.,24.0,10.,24.0,0.,24.0
1979-07-14 10:34:34.580 ,2,1,0.,24.0,1.,24.0,9.,24.0,0.,24.0
1979-07-14 10:34:58.580 ,2,0,2.,24.0,0.,24.0,11.,24.0,0.,24.0
1979-07-14 10:35:22.580 ,1,1,1.,24.0,0.,24.0,10.,24.0,0.,24.0
1979-07-14 10:35:46.580 ,1,0,3.,24.0,0.,24.0,14.,24.0,0.,24.0
1979-07-14 10:36:10.580 ,0,1,1.,24.0,1.,24.0,7.,24.0,0.,24.0
1979-07-14 10:36:34.580 ,0,0,2.,24.0,1.,24.0,18.,24.0,0.,24.0
1979-07-14 10:36:58.580 ,0,1,0.,24.0,1.,24.0,13.,24.0,0.,24.0
1979-07-14 10:37:22.580 ,0,0,0.,24.0,0.,24.0,9.,24.0,0.,24.0
1979-07-14 10:37:46.580 ,1,1,0.,24.0,0.,24.0,12.,24.0,0.,24.0
1979-07-14 10:38:10.580 ,1,0,1.,24.0,0.,24.0,10.,24.0,0.,24.0
1979-07-14 10:38:34.580 ,2,1,0.,24.0,0.,24.0,8.,24.0,0.,24.0
1979-07-14 10:38:58.580 ,2,0,1.,24.0,0.,24.0,10.,24.0,0.,24.0
1979-07-14 10:39:22.580 ,3,1,1.,24.0,0.,24.0,9.,24.0,0.,24.0
1979-07-14 10:39:46.580 ,3,0,1.,24.0,0.,24.0,9.,24.0,0.,24.0
1979-07-14 10:40:10.580 ,4,1,0.,24.0,0.,24.0,7.,24.0,0.,24.0
1979-07-14 10:40:34.580 ,4,0,1.,24.0,0.,24.0,18.,24.0,0.,24.0
1979-07-14 10:40:58.580 ,5,1,4.,24.0,1.,24.0,14.,24.0,0.,24.0
1979-07-14 10:41:22.580 ,5,0,1.,24.0,1.,24.0,10.,24.0,0.,24.0
1979-07-14 10:41:46.580 ,6,1,1.,24.0,1.,24.0,11.,24.0,0.,24.0
1979-07-14 10:42:10.580 ,6,0,2.,24.0,0.,24.0,8.,24.0,0.,24.0
1979-07-14 10:42:34.580 ,7,0,3.,24.0,0.,24.0,15.,24.0,0.,24.0
1979-07-14 10:42:58.580 ,7,0,36.,24.0,0.,24.0,15.,24.0,0.,24.0
1979-07-14 10:43:22.580 ,5,1,12.,24.0,1.,24.0,12.,24.0,0.,24.0
1979-07-14 10:43:46.580 ,1,1,1.,24.0,0.,24.0,11.,24.0,0.,24.0
1979-07-14 10:44:10.580 ,2,1,0.,24.0,0.,24.0,13.,24.0,0.,24.0
1979-07-14 10:44:34.580 ,6,1,3.,24.0,1.,24.0,6.,24.0,0.,24.0
1979-07-14 10:44:58.580 ,5,1,19.,24.0,0.,24.0,19.,24.0,0.,24.0
1979-07-14 10:45:22.580 ,1,1,1.,24.0,0.,24.0,13.,24.0,0.,24.0
1979-07-14 10:45:46.580 ,2,1,0.,24.0,1.,24.0,16.,24.0,0.,24.0
1979-07-14 10:46:10.580 ,6,1,2.,24.0,1.,24.0,6.,24.0,0.,24.0
1979-07-14 10:46:34.580 ,5,1,17.,24.0,0.,24.0,30.,24.0,0.,24.0
1979-07-14 10:46:58.580 ,1,1,2.,24.0,0.,24.0,10.,24.0,0.,24.0
1979-07-14 10:47:22.580 ,2,1,1.,24.0,0.,24.0,20.,24.0,0.,24.0
1979-07-14 10:47:46.580 ,6,1,1.,24.0,1.,24.0,11.,24.0,0.,24.0
1979-07-14 10:48:10.580 ,5,1,19.,24.0,0.,24.0,10.,24.0,0.,24.0
1979-07-14 10:48:34.580 ,1,1,3.,24.0,2.,24.0,9.,24.0,0.,24.0
1979-07-14 10:48:58.580 ,2,1,0.,24.0,0.,24.0,18.,24.0,0.,24.0
1979-07-14 10:49:22.580 ,6,1,3.,24.0,1.,24.0,18.,24.0,0.,24.0
1979-07-14 10:49:46.580 ,5,1,26.,24.0,2.,24.0,20.,24.0,0.,24.0
1979-07-14 10:50:10.580 ,1,1,2.,24.0,0.,24.0,15.,24.0,0.,24.0
1979-07-14 10:50:34.580 ,2,1,4.,24.0,0.,24.0,10.,24.0,0.,24.0
1979-07-14 10:50:58.580 ,6,1,1.,24.0,2.,24.0,12.,24.0,0.,24.0
1979-07-14 10:51:22.580 ,5,1,18.,24.0,2.,24.0,8.,24.0,0.,24.0
1979-07-14 10:51:46.580 ,1,1,2.,24.0,0.,24.0,6.,24.0,0.,24.0
1979-07-14 10:52:10.580 ,2,1,2.,24.0,0.,24.0,13.,24.0,0.,24.0
1979-07-14 10:52:34.580 ,6,1,2.,24.0,1.,24.0,8.,24.0,0.,24.0
1979-07-14 10:52:58.580 ,5,1,18.,24.0,2.,24.0,11.,24.0,0.,24.0
1979-07-14 10:53:22.580 ,1,1,3.,24.0,0.,24.0,8.,24.0,0.,24.0
1979-07-14 10:53:46.580 ,0,0,2.,24.0,0.,24.0,15.,24.0,0.,24.0
1979-07-14 10:54:10.580 ,0,0,2.,24.0,1.,24.0,15.,24.0,0.,24.0
1979-07-14 10:54:34.580 ,5,1,23.,24.0,0.,24.0,17.,24.0,0.,24.0
1979-07-14 10:54:58.580 ,5,0,2.,24.0,0.,24.0,20.,24.0,0.,24.0
1979-07-14 10:55:22.580 ,4,1,5.,24.0,1.,24.0,4.,24.0,0.,24.0
1979-07-14 10:55:46.580 ,4,0,4.,24.0,0.,24.0,10.,24.0,0.,24.0
1979-07-14 10:56:10.580 ,3,1,2.,24.0,0.,24.0,9.,24.0,0.,24.0
1979-07-14 10:56:34.580 ,3,0,1.,24.0,0.,24.0,6.,24.0,0.,24.0
1979-07-14 10:56:58.580 ,2,1,0.,24.0,0.,24.0,11.,24.0,0.,24.0
1979-07-14 10:57:22.580 ,2,0,0.,24.0,0.,24.0,7.,24.0,0.,24.0
1979-07-14 10:57:46.580 ,1,1,1.,24.0,0.,24.0,8.,24.0,0.,24.0
1979-07-14 10:58:10.580 ,1,0,2.,24.0,0.,24.0,12.,24.0,0.,24.0
1979-07-14 10:58:34.580 ,0,1,1.,24.0,1.,24.0,10.,24.0,0.,24.0
1979-07-14 10:58:58.580 ,0,0,0.,24.0,1.,24.0,17.,24.0,0.,24.0
1979-07-14 10:59:22.580 ,0,1,1.,24.0,0.,24.0,9.,24.0,0.,24.0
1979-07-14 10:59:46.580 ,0,0,0.,24.0,0.,24.0,11.,24.0,0.,24.0
1979-07-14 11:00:10.580 ,1,1,0.,24.0,1.,24.0,13.,24.0,0.,24.0
1979-07-14 11:00:34.580 ,1,0,0.,24.0,1.,24.0,10.,24.0,0.,24.0
1979-07-14 11:00:58.580 ,2,1,0.,24.0,0.,24.0,10.,24.0,0.,24.0
1979-07-14 11:01:22.580 ,2,0,0.,24.0,1.,24.0,16.,24.0,0.,24.0
1979-07-14 11:01:46.580 ,3,1,1.,24.0,0.,24.0,15.,24.0,0.,24.0
1979-07-14 11:02:10.580 ,3,0,2.,24.0,0.,24.0,6.,24.0,0.,24.0
1979-07-14 11:02:34.580 ,4,1,0.,24.0,0.,24.0,3.,24.0,0.,24.0
1979-07-14 11:02:58.580 ,4,0,2.,24.0,0.,24.0,6.,24.0,0.,24.0
1979-07-14 11:03:22.580 ,5,1,1.,24.0,0.,24.0,6.,24.0,0.,24.0
1979-07-14 11:03:46.580 ,5,0,3.,24.0,0.,24.0,10.,24.0,0.,24.0
1979-07-14 11:04:10.580 ,6,1,3.,24.0,0.,24.0,19.,24.0,0.,24.0
1979-07-14 11:04:34.580 ,6,0,2.,24.0,1.,24.0,7.,24.0,0.,24.0
1979-07-14 11:04:58.580 ,7,1,10.,24.0,0.,24.0,9.,24.0,0.,24.0
1979-07-14 11:05:22.580 ,7,0,39.,24.0,0.,24.0,12.,24.0,0.,24.0
1979-07-14 11:05:46.580 ,7,1,32.,24.0,0.,24.0,9.,24.0,0.,24.0
1979-07-14 11:06:10.580 ,7,0,19.,24.0,0.,24.0,8.,24.0,0.,24.0
1979-07-14 11:06:34.580 ,6,1,25.,24.0,1.,24.0,6.,24.0,0.,24.0
1979-07-14 11:06:58.580 ,6,0,1.,24.0,0.,24.0,6.,24.0,0.,24.0
1979-07-14 11:07:22.580 ,5,1,1.,24.0,0.,24.0,7.,24.0,0.,24.0
1979-07-14 11:07:46.580 ,5,0,1.,24.0,0.,24.0,10.,24.0,0.,24.0
1979-07-14 11:08:10.580 ,4,1,3.,24.0,0.,24.0,13.,24.0,0.,24.0
1979-07-14 11:08:34.580 ,4,0,0.,24.0,0.,24.0,4.,24.0,0.,24.0
1979-07-14 11:08:58.580 ,3,1,3.,24.0,2.,24.0,10.,24.0,0.,24.0
1979-07-14 11:09:22.580 ,3,0,0.,24.0,0.,24.0,6.,24.0,0.,24.0
1979-07-14 11:09:46.580 ,2,1,1.,24.0,0.,24.0,8.,24.0,0.,24.0
1979-07-14 11:10:10.580 ,2,0,1.,24.0,0.,24.0,7.,24.0,0.,24.0
1979-07-14 11:10:34.580 ,1,1,2.,24.0,0.,24.0,2.,24.0,0.,24.0
1979-07-14 11:10:58.580 ,1,0,0.,24.0,1.,24.0,10.,24.0,0.,24.0
1979-07-14 11:11:22.580 ,0,1,0.,24.0,0.,24.0,6.,24.0,0.,24.0
1979-07-14 11:11:46.580 ,0,0,1.,24.0,0.,24.0,11.,24.0,0.,24.0
1979-07-14 11:12:10.580 ,0,1,0.,24.0,0.,24.0,10.,24.0,0.,24.0
1979-07-14 11:12:34.580 ,0,0,0.,24.0,1.,24.0,7.,24.0,0.,24.0
1979-07-14 11:12:58.580 ,1,1,0.,24.0,1.,24.0,10.,24.0,0.,24.0
1979-07-14 11:13:22.580 ,1,0,2.,24.0,0.,24.0,14.,24.0,0.,24.0
1979-07-14 11:13:46.580 ,2,1,1.,24.0,0.,24.0,11.,24.0,0.,24.0
1979-07-14 11:14:10.580 ,2,0,1.,24.0,0.,24.0,11.,24.0,0.,24.0
1979-07-14 11:14:34.580 ,3,1,2.,24.0,0.,24.0,7.,24.0,0.,24.0
1979-07-14 11:14:58.580 ,3,0,2.,24.0,0.,24.0,4.,24.0,0.,24.0
1979-07-14 11:15:22.580 ,4,1,2.,24.0,0.,24.0,9.,24.0,0.,24.0
1979-07-14 11:15:46.580 ,4,0,1.,24.0,1.,24.0,10.,24.0,0.,24.0
1979-07-14 11:16:10.580 ,5,1,0.,24.0,0.,24.0,7.,24.0,0.,24.0
1979-07-14 11:16:34.580 ,5,0,5.,24.0,1.,24.0,12.,24.0,0.,24.0
1979-07-14 11:16:58.580 ,6,1,1.,24.0,1.,24.0,8.,24.0,0.,24.0
1979-07-14 11:17:22.580 ,6,0,1.,24.0,0.,24.0,13.,24.0,0.,24.0
1979-07-14 11:17:46.580 ,7,1,7.,24.0,0.,24.0,15.,24.0,0.,24.0
1979-07-14 11:18:10.580 ,7,0,24.,24.0,0.,24.0,14.,24.0,0.,24.0
1979-07-14 11:18:34.580 ,7,1,23.,24.0,0.,24.0,14.,24.0,0.,24.0
1979-07-14 11:18:58.580 ,7,0,36.,24.0,0.,24.0,9.,24.0,0.,24.0
1979-07-14 11:19:22.580 ,6,1,31.,24.0,0.,24.0,16.,24.0,0.,24.0
1979-07-14 11:19:46.580 ,6,0,0.,24.0,1.,24.0,15.,24.0,0.,24.0
1979-07-14 11:20:10.580 ,5,1,2.,24.0,1.,24.0,8.,24.0,0.,24.0
1979-07-14 11:20:34.580 ,5,0,4.,24.0,3.,24.0,11.,24.0,0.,24.0
1979-07-14 11:20:58.580 ,4,1,3.,24.0,1.,24.0,21.,24.0,0.,24.0
1979-07-14 11:21:22.580 ,4,0,2.,24.0,0.,24.0,10.,24.0,0.,24.0
1979-07-14 11:21:46.580 ,3,1,0.,24.0,0.,24.0,7.,24.0,0.,24.0
1979-07-14 11:22:10.580 ,3,0,1.,24.0,0.,24.0,8.,24.0,0.,24.0
1979-07-14 11:22:34.580 ,2,1,1.,24.0,2.,24.0,9.,24.0,0.,24.0
1979-07-14 11:22:58.580 ,2,0,0.,24.0,1.,24.0,13.,24.0,0.,24.0
1979-07-14 11:23:22.580 ,1,1,0.,24.0,0.,24.0,7.,24.0,0.,24.0
1979-07-14 11:23:46.580 ,1,0,3.,24.0,1.,24.0,18.,24.0,0.,24.0
1979-07-14 11:24:10.580 ,0,1,0.,24.0,0.,24.0,14.,24.0,0.,24.0
1979-07-14 11:24:34.580 ,0,0,0.,24.0,0.,24.0,8.,24.0,0.,24.0
1979-07-14 11:24:58.580 ,0,1,0.,24.0,0.,24.0,12.,24.0,0.,24.0
1979-07-14 11:25:22.580 ,0,0,0.,24.0,1.,24.0,9.,24.0,0.,24.0
1979-07-14 11:25:46.580 ,1,1,1.,24.0,0.,24.0,4.,24.0,0.,24.0
1979-07-14 11:26:10.580 ,1,0,2.,24.0,1.,24.0,3.,24.0,0.,24.0
1979-07-14 11:26:34.580 ,2,1,1.,24.0,1.,24.0,3.,24.0,0.,24.0
1979-07-14 11:26:58.580 ,2,0,1.,24.0,1.,24.0,2.,24.0,0.,24.0
1979-07-14 11:27:22.580 ,3,1,1.,24.0,0.,24.0,5.,24.0,0.,24.0
1979-07-14 11:27:46.580 ,3,0,0.,24.0,0.,24.0,4.,24.0,0.,24.0
1979-07-14 11:28:10.580 ,4,1,0.,24.0,0.,24.0,1.,24.0,0.,24.0
1979-07-14 11:28:34.580 ,4,0,1.,24.0,0.,24.0,5.,24.0,0.,24.0
1979-07-14 11:28:58.580 ,5,1,3.,24.0,1.,24.0,3.,24.0,0.,24.0
1979-07-14 11:29:22.580 ,5,0,3.,24.0,0.,24.0,7.,24.0,0.,24.0
1979-07-14 11:29:46.580 ,6,1,2.,24.0,0.,24.0,6.,24.0,0.,24.0
1979-07-14 11:30:10.580 ,6,0,3.,24.0,0.,24.0,5.,24.0,0.,24.0
1979-07-14 11:30:34.580 ,7,0,7.,24.0,1.,24.0,2.,24.0,0.,24.0
1979-07-14 11:30:58.580 ,7,0,27.,24.0,0.,24.0,10.,24.0,0.,24.0
1979-07-14 11:31:22.580 ,5,1,19.,24.0,0.,24.0,4.,24.0,0.,24.0
1979-07-14 11:31:46.580 ,1,1,0.,24.0,0.,24.0,8.,24.0,0.,24.0
1979-07-14 11:32:10.580 ,2,1,0.,24.0,0.,24.0,3.,24.0,0.,24.0
1979-07-14 11:32:34.580 ,6,1,1.,24.0,2.,24.0,6.,24.0,0.,24.0
1979-07-14 11:32:58.580 ,5,1,17.,24.0,0.,24.0,4.,24.0,0.,24.0